Theta_e
324 322 323 323 323 322 324 324 322 321 321 321 320 320 317 316 312 309 307 304 300 301 302 301 303 307 307 308 309 310 309 312 310 305 304 303 302 307 308 307 307 307 306 305 306 305 305 306 308 311 312 312 313 312 309 309 308 310 312 312 311 309 309 309 308 312 310 311 310 309 309 309 308 307
324 323 323 322 323 322 323 322 322 322 321 321 319 318 316 315 314 311 308 305 301 300 301 301 301 305 307 308 308 308 308 313 308 305 304 302 301 307 307 305 303 304 305 304 304 304 305 308 310 313 312 312 311 308 308 308 309 311 312 311 311 310 310 309 311 310 309 308 309 308 307 307 306 306
324 323 323 320 322 321 323 323 322 322 322 321 321 318 316 313 311 311 309 304 302 302 301 301 304 305 306 308 308 308 308 312 308 304 302 303 306 308 306 305 304 304 305 302 302 305 306 307 309 310 312 312 311 310 311 310 311 312 311 310 310 311 310 311 311 311 311 310 309 308 307 307 307 306
324 323 322 321 323 321 321 322 322 322 322 322 322 320 317 314 311 308 307 305 302 301 302 302 304 305 306 307 306 305 308 311 309 304 303 303 309 306 301 305 305 305 304 303 304 309 310 309 310 311 312 311 311 311 310 311 312 312 309 308 310 312 312 312 312 312 311 309 309 307 307 306 307 307
325 324 323 322 322 322 322 322 322 323 322 322 322 321 319 317 313 309 306 303 300 301 303 304 303 305 306 304 305 305 306 307 306 306 303 302 302 302 300 301 304 304 304 302 302 303 304 305 310 309 307 308 307 307 306 308 310 309 307 306 307 308 310 310 310 310 309 307 307 306 306 306 307 307
326 324 323 323 322 323 322 321 322 323 322 322 321 319 319 318 317 309 307 302 300 299 302 302 302 303 304 301 302 303 304 305 306 303 303 303 302 301 299 299 300 303 303 302 301 302 303 304 304 305 303 304 304 305 304 303 304 307 304 303 305 310 310 309 306 307 307 306 306 306 306 306 306 306
323 322 323 322 322 323 320 320 321 321 322 321 321 319 319 318 316 310 306 302 300 300 300 302 301 302 302 300 301 302 303 305 307 304 302 303 303 302 299 299 300 301 302 302 302 301 301 302 302 302 303 303 302 303 304 303 302 302 302 301 304 305 305 304 303 303 306 306 306 306 306 305 305 305
321 321 320 321 322 321 320 319 318 319 320 320 320 319 318 316 317 312 304 305 301 300 301 301 302 302 301 300 301 302 302 302 304 305 304 303 303 302 301 300 300 301 302 302 302 302 302 301 301 300 300 301 302 302 302 303 301 301 302 301 301 302 302 301 299 297 299 306 307 306 304 304 304 305
320 320 321 321 322 321 319 317 317 319 318 321 319 318 316 317 317 312 306 304 303 302 302 302 302 302 301 301 301 301 300 300 302 303 304 304 304 303 302 302 302 303 302 302 302 301 301 301 300 300 300 300 301 301 300 301 302 301 302 302 301 300 300 300 296 295 296 300 304 305 303 303 304 304
321 321 320 320 320 320 320 318 317 318 319 319 316 315 316 318 316 312 305 304 302 303 303 302 301 300 301 301 300 302 301 300 301 302 303 304 304 304 302 302 303 304 303 301 302 302 301 301 301 301 301 300 299 300 300 300 301 301 301 301 301 300 300 299 294 293 294 299 300 302 303 302 303 304
320 320 319 318 319 319 319 319 317 317 316 318 316 315 314 315 314 310 305 305 302 302 302 301 302 302 301 301 301 302 303 302 302 301 301 301 304 304 303 303 303 303 303 303 301 301 301 302 302 301 300 300 300 300 300 300 301 301 300 300 300 299 299 298 294 294 296 298 299 299 299 302 302 304
319 319 318 317 316 316 317 318 316 316 317 316 315 314 315 316 312 308 305 305 303 301 302 302 300 300 301 300 302 303 302 301 301 303 302 301 301 302 303 304 303 303 303 302 303 302 301 301 301 301 301 301 300 300 300 301 301 301 300 299 299 299 298 297 296 297 297 298 298 297 297 296 298 301
317 315 315 314 314 318 323 317 316 316 317 317 316 314 313 313 310 305 305 304 303 301 301 301 301 300 299 300 301 299 299 300 301 303 302 302 302 303 303 303 304 305 303 303 302 301 301 300 300 299 299 299 300 300 301 301 302 301 300 299 298 299 298 298 297 298 298 298 297 296 296 295 295 295
315 317 315 317 322 317 313 308 304 305 310 314 316 314 315 312 309 306 304 303 302 302 301 301 301 299 300 300 301 301 302 303 303 301 301 301 302 300 301 302 304 305 304 302 301 302 302 301 300 299 299 300 301 300 299 299 300 300 299 299 299 299 298 297 298 298 298 298 297 297 296 296 295 294
316 314 313 311 314 310 308 304 299 298 299 302 303 305 310 313 313 310 307 304 303 303 303 301 301 300 300 301 302 302 302 301 302 302 302 302 301 301 300 300 301 303 305 302 302 303 302 300 300 300 300 301 300 300 300 300 300 300 299 299 299 299 298 298 298 297 297 297 297 297 296 296 296 294
313 311 310 310 310 310 312 309 305 304 300 297 296 297 297 296 296 299 308 308 306 305 306 304 304 302 302 301 302 303 303 302 301 302 302 302 302 301 300 299 302 304 305 303 300 302 302 300 300 300 301 301 301 301 300 299 299 299 299 299 298 298 298 298 297 297 297 297 296 296 296 296 295 294
310 309 308 305 304 304 308 306 306 307 304 302 299 298 301 300 299 296 296 298 307 306 305 306 304 303 303 305 306 305 304 304 304 304 304 304 303 303 302 303 304 305 303 303 301 301 303 300 299 299 302 303 302 301 300 300 299 299 299 299 298 298 298 297 297 297 296 296 296 296 296 295 295 295
310 308 305 302 299 298 299 300 303 307 308 308 312 313 312 310 306 300 299 299 300 304 307 305 305 305 306 306 306 308 308 308 308 306 305 304 305 304 304 306 306 304 304 304 302 299 301 300 299 299 301 303 302 301 301 299 299 299 298 298 298 297 297 297 297 297 296 296 296 296 296 295 294 294
305 302 300 297 296 296 297 299 301 309 311 311 311 312 311 308 305 302 302 303 303 304 306 306 306 306 306 307 307 306 306 307 308 308 308 308 307 306 304 304 305 304 305 304 303 302 301 298 299 301 302 302 302 302 300 300 299 299 298 298 297 297 297 297 296 296 296 296 296 295 295 294 294 293
299 299 298 297 296 296 296 296 295 299 304 304 304 305 308 307 304 302 302 297 298 300 301 302 302 303 304 300 303 302 302 303 304 304 304 305 305 305 304 304 299 301 303 304 303 300 298 298 301 300 299 301 302 302 301 300 299 299 298 297 297 296 296 296 296 296 296 295 295 295 295 294 293 293
299 299 298 296 295 295 295 293 293 295 299 300 300 300 300 301 300 298 299 297 296 295 295 295 296 296 297 299 300 300 296 299 300 303 307 307 305 303 304 303 301 303 300 300 305 301 300 298 300 300 299 298 299 300 300 298 297 298 298 297 297 296 296 296 296 296 296 295 295 295 295 294 293 293
297 299 302 300 295 293 293 291 291 293 298 298 298 297 296 295 296 296 297 298 299 297 297 296 297 297 296 297 300 299 298 301 299 303 302 305 301 302 298 300 299 298 299 300 303 302 299 299 301 302 300 299 298 299 300 298 297 297 297 297 297 296 296 296 296 295 296 296 296 295 295 294 294 294
296 296 296 297 295 294 292 290 290 291 296 297 297 296 294 294 294 294 294 296 296 297 298 299 300 300 300 302 302 302 298 299 303 304 304 303 302 301 301 300 298 298 296 299 304 304 300 302 300 301 300 299 299 295 296 295 294 295 296 296 296 296 295 295 295 295 295 294 295 295 295 294 294 293
296 296 296 295 290 290 290 290 290 290 291 294 295 295 294 293 293 294 294 296 295 295 296 297 298 298 299 300 300 301 302 303 304 303 304 303 302 303 303 301 299 299 297 299 304 304 301 302 302 302 302 299 295 296 293 294 293 293 294 295 294 295 295 295 295 295 294 295 295 295 295 295 294 292
296 296 295 295 292 290 290 290 290 290 290 292 294 294 294 294 294 293 293 295 296 295 296 296 297 298 298 299 299 299 300 301 302 303 303 303 302 302 302 302 301 301 302 303 300 305 301 300 299 298 299 299 296 295 293 292 292 292 293 293 293 294 294 295 295 295 294 294 294 294 294 294 294 293
295 295 295 295 292 290 290 290 291 291 291 292 295 291 288 287 288 292 293 294 294 295 295 295 295 296 297 297 298 298 299 299 300 301 301 300 299 299 303 304 303 302 301 297 297 301 301 297 300 299 296 298 296 295 294 293 291 290 292 293 294 294 295 294 294 294 294 294 294 294 294 294 294 294
295 295 294 295 292 290 290 291 291 291 292 293 291 288 287 286 286 290 292 292 294 293 293 294 295 295 295 296 296 296 297 298 299 299 299 297 295 294 294 294 296 298 295 294 297 298 300 297 296 298 299 296 296 291 290 290 290 291 290 291 292 293 294 294 293 293 293 293 294 294 294 293 293 293
294 293 293 293 290 290 291 291 291 291 292 292 290 289 288 289 290 293 293 293 294 292 292 293 292 295 294 295 296 296 296 296 297 297 297 295 292 292 291 291 292 291 292 293 294 296 299 299 296 294 296 295 293 292 290 287 289 289 289 290 291 293 293 293 293 293 293 293 293 293 292 292 292 292
293 291 290 291 291 291 291 291 292 292 292 291 291 292 292 295 293 293 293 293 294 294 291 291 292 292 292 294 294 294 293 294 295 295 297 296 293 291 292 292 292 293 294 295 294 293 294 296 295 292 294 293 296 294 292 289 288 288 290 290 289 292 292 292 293 293 293 292 292 291 291 291 291 291
290 291 291 292 292 292 293 294 294 293 293 292 292 292 293 293 292 292 292 292 292 291 292 291 292 292 292 293 295 293 293 295 294 294 294 294 295 295 294 295 296 294 294 294 294 292 290 290 291 290 291 289 291 291 290 289 288 288 289 291 291 293 294 293 293 293 292 292 292 291 291 291 291 291
293 293 293 292 291 291 291 291 292 292 292 292 293 292 292 292 292 291 291 291 290 290 291 291 291 290 292 291 291 292 292 292 292 293 292 292 293 293 293 291 293 293 293 293 293 292 290 288 289 289 291 288 290 292 293 292 290 291 292 293 294 292 293 294 293 292 292 291 292 291 290 289 288 290
293 293 292 292 293 293 293 292 292 291 291 290 290 291 291 290 290 292 292 292 289 288 288 289 288 289 289 289 290 290 291 291 291 292 291 290 291 292 292 290 288 289 290 290 291 291 290 289 290 291 292 291 291 292 291 292 292 292 292 293 294 293 292 292 290 290 292 291 289 288 288 288 289 290
292 292 291 290 291 290 288 288 289 289 288 287 289 289 289 288 289 289 288 287 287 287 287 287 287 287 288 289 289 288 290 291 291 290 290 290 290 290 289 289 290 290 288 289 289 291 291 292 292 291 290 290 291 292 293 290 291 292 291 292 292 291 290 290 291 291 291 290 288 288 288 290 291 291
290 289 288 288 287 287 287 287 286 286 286 286 286 285 287 286 287 286 286 286 286 285 285 285 285 286 286 287 288 289 290 289 289 287 287 287 287 286 287 287 287 288 287 286 288 289 291 292 291 289 288 288 293 293 293 292 290 292 291 291 291 290 289 289 289 289 290 290 289 288 287 288 290 290
289 288 287 286 287 286 287 286 285 285 285 284 284 284 284 285 285 284 285 285 284 284 284 284 284 284 284 285 285 285 286 286 285 286 285 284 284 285 286 287 288 288 288 288 288 290 290 288 289 288 287 288 289 290 294 293 290 290 289 290 290 290 290 290 290 291 291 289 289 287 286 287 288 289
287 287 287 286 286 286 285 285 285 284 284 284 284 284 284 284 284 284 284 284 284 284 284 284 283 283 283 283 283 283 283 283 284 284 283 284 284 284 283 285 286 288 288 288 288 289 288 286 286 285 285 285 286 285 286 293 293 291 288 287 289 290 290 291 291 291 290 288 288 288 286 286 287 289
287 287 287 286 286 286 285 284 284 285 285 284 284 284 284 284 284 284 285 284 283 282 282 281 282 282 283 283 283 283 282 282 280 282 283 284 284 285 286 286 286 287 288 289 289 288 288 285 285 284 285 285 285 285 286 287 289 292 290 287 287 289 290 289 289 288 288 288 288 287 286 286 286 289
287 287 286 286 286 285 285 285 285 285 285 284 284 284 284 283 284 283 283 283 283 282 283 282 282 282 282 281 281 282 282 282 281 281 283 283 284 284 285 286 286 287 287 287 287 287 289 288 288 287 287 286 285 285 285 287 286 289 291 290 288 287 287 288 287 287 288 288 288 287 286 285 286 288
288 287 287 286 286 286 285 285 285 285 285 284 284 283 282 283 282 282 283 283 282 282 281 282 282 282 282 282 281 280 281 282 283 283 283 285 285 285 285 286 286 287 287 287 288 289 289 289 288 288 287 286 285 286 286 286 287 288 289 291 290 287 287 287 287 287 287 286 286 286 286 287 287 288
287 287 287 287 286 286 286 286 285 285 284 284 284 283 283 282 282 283 282 282 282 281 282 282 282 283 282 282 282 281 283 282 282 283 283 285 285 286 286 285 285 286 286 286 286 287 288 288 288 288 288 288 287 287 286 287 287 286 287 288 291 290 287 286 286 287 288 288 286 286 285 284 284 283
287 288 287 287 287 287 286 286 285 284 284 285 284 285 283 283 283 282 282 282 281 282 282 282 282 280 282 282 282 282 283 283 283 283 284 284 285 286 286 286 286 286 285 286 286 286 287 288 288 286 288 287 286 287 287 286 285 286 286 286 288 289 290 290 289 287 287 287 285 285 285 284 282 280
289 288 288 287 287 286 287 286 285 284 284 283 283 282 281 281 282 285 282 282 282 281 281 281 281 282 283 283 283 283 282 282 282 282 283 283 284 285 285 285 284 285 285 285 285 286 287 287 286 286 285 285 286 286 285 285 285 285 285 286 286 288 289 290 290 289 287 286 283 283 283 283 280 279
288 288 287 287 286 285 285 284 284 283 282 283 283 282 282 283 282 282 281 282 281 281 280 281 281 281 282 283 283 282 282 282 280 281 281 282 281 282 282 282 282 283 283 285 285 286 286 287 287 287 286 285 286 286 286 285 285 285 286 287 287 285 287 289 288 289 289 289 288 286 285 286 282 281
288 287 285 284 285 284 284 283 283 282 281 280 282 282 282 282 282 282 281 279 280 279 280 280 280 280 281 281 281 281 281 279 278 279 280 280 280 280 281 282 283 282 283 284 285 286 286 286 286 286 287 286 286 286 286 286 286 286 285 286 286 286 287 286 286 288 287 287 288 288 289 288 286 288
285 284 283 283 283 283 283 283 283 283 281 282 282 281 282 281 281 280 279 279 278 278 279 279 279 279 278 279 279 281 280 283 281 280 280 280 280 281 281 282 283 284 284 284 285 286 286 286 286 286 286 286 286 286 286 286 286 286 286 286 286 286 286 286 287 287 286 287 287 287 287 287 287 287
Wind_Speed
5 4 5 6 5 5 4 5 6 6 6 7 7 8 10 9 10 8 6 5 3 4 2 5 4 4 3 4 4 5 5 6 7 4 4 4 4 6 8 8 8 8 8 8 7 8 8 8 8 7 6 5 5 6 6 6 6 5 5 5 5 5 5 6 5 4 5 6 6 5 3 2 2 2
5 4 4 3 5 3 4 5 6 7 7 7 7 7 4 4 9 8 9 6 3 5 4 2 4 5 5 5 5 4 5 7 7 5 5 4 4 7 8 8 8 8 8 8 7 7 7 7 7 6 6 5 6 6 6 6 6 5 6 6 5 5 5 4 4 5 5 5 5 4 3 2 1 1
5 4 4 3 4 3 4 4 5 5 7 7 7 6 6 5 3 6 6 5 4 4 8 5 2 6 6 6 5 4 4 6 7 5 4 4 6 7 6 8 8 8 8 7 7 7 7 7 7 7 7 7 7 7 7 7 7 8 7 6 7 8 7 5 5 6 6 5 4 4 3 2 2 1
5 5 4 4 4 3 3 4 4 5 5 6 7 6 7 5 6 5 6 8 7 5 6 4 4 5 7 6 6 4 4 4 8 4 4 4 6 5 4 7 8 8 8 7 7 8 8 8 9 9 9 9 9 9 9 9 9 9 8 9 8 8 8 7 6 7 6 5 4 3 3 3 2 2
5 5 5 4 4 4 4 5 4 5 5 5 6 6 6 6 5 7 6 7 3 0 1 3 3 5 6 5 4 6 5 5 4 4 3 4 4 4 5 5 7 8 8 9 9 10 10 10 10 11 11 11 11 10 10 10 10 9 10 10 9 8 8 8 7 6 6 5 4 3 3 3 3 2
4 5 5 5 4 4 5 5 5 5 5 5 5 6 7 7 6 6 7 6 7 7 0 3 3 4 4 5 5 7 8 6 4 5 4 3 4 5 5 5 6 10 10 10 11 11 11 11 11 11 12 12 11 11 11 11 12 10 11 11 10 10 10 9 8 5 6 6 5 4 4 3 3 3
4 4 5 5 5 4 4 4 5 4 5 4 4 3 4 7 7 7 6 7 6 8 4 3 5 6 6 5 7 7 6 6 7 6 6 6 5 4 5 6 5 9 12 12 12 12 12 12 12 12 12 12 12 12 12 13 13 12 12 12 11 11 10 10 8 6 5 6 6 6 5 4 4 4
4 5 4 5 5 5 5 5 5 5 4 5 5 5 3 4 5 6 6 7 6 4 6 5 7 7 7 5 3 5 3 5 6 7 4 3 5 6 6 7 6 8 13 13 13 14 13 13 13 13 13 13 13 13 13 13 14 13 13 13 13 12 11 10 8 6 6 6 8 8 6 5 5 4
5 5 5 5 5 6 6 4 4 4 4 4 4 4 3 5 4 3 6 6 6 8 8 6 3 4 4 2 2 5 7 4 4 3 5 6 7 6 6 6 7 9 11 13 14 14 15 14 15 15 15 15 15 15 14 14 14 15 15 14 14 13 12 11 9 8 7 8 8 9 7 6 5 6
5 6 5 5 6 6 6 6 4 4 5 4 3 3 4 6 4 2 4 4 6 9 8 8 5 4 6 4 3 6 7 7 5 4 4 3 4 5 6 7 7 5 6 6 8 11 13 14 16 16 16 16 15 15 15 15 15 15 14 14 14 14 13 12 10 10 9 10 10 9 8 7 7 7
4 5 5 5 5 6 6 6 6 5 4 4 4 2 4 2 1 3 5 6 6 6 7 4 6 7 5 5 7 6 7 6 5 8 5 6 6 6 7 8 7 6 7 10 14 13 12 13 12 14 16 16 16 15 15 15 15 14 14 14 14 14 14 13 11 11 11 12 11 10 8 7 8 7
5 5 5 5 4 4 4 5 4 4 5 4 4 3 3 6 6 4 3 5 6 6 6 7 6 5 6 4 0 2 4 3 4 5 7 10 8 9 8 10 9 7 7 8 7 9 9 9 12 13 13 16 16 15 14 15 15 15 15 14 15 15 15 13 11 11 13 12 11 9 8 7 6 5
4 3 2 3 3 3 4 3 3 4 6 6 5 4 4 4 5 4 5 6 6 6 6 5 3 4 4 5 5 5 7 9 13 10 7 8 8 7 6 8 7 6 7 7 6 7 8 8 8 8 8 10 13 14 15 12 16 16 15 16 16 16 16 15 14 14 13 13 11 10 9 9 7 5
2 2 3 2 4 4 5 5 3 4 8 5 6 5 6 6 5 5 6 6 6 6 6 7 7 6 7 7 7 7 9 11 6 2 5 8 9 3 6 6 6 7 7 7 8 10 6 7 8 6 9 10 9 9 8 11 12 16 18 17 17 17 16 16 15 14 14 13 12 11 11 9 7 6
5 5 6 5 6 6 7 7 10 13 10 8 6 7 7 6 6 8 6 4 5 6 5 3 4 6 8 7 5 5 4 4 6 8 6 8 3 4 6 8 5 3 9 8 8 10 5 8 10 10 10 11 7 8 11 16 17 18 18 18 17 17 16 16 16 16 15 14 13 12 11 9 7 7
6 6 6 5 5 5 6 4 4 6 6 11 7 13 16 15 16 12 5 5 5 5 5 4 5 4 6 6 4 5 2 5 4 5 4 6 7 7 7 6 7 4 8 9 7 11 4 7 9 9 10 11 9 11 16 18 17 18 18 18 18 18 17 17 17 16 16 15 15 14 12 10 9 9
6 6 7 6 5 5 9 5 3 2 2 4 1 13 17 17 17 16 16 12 5 3 5 5 3 1 1 0 1 1 1 3 5 5 6 6 6 7 7 9 8 7 4 4 6 9 8 7 8 10 11 10 7 9 13 17 17 18 18 18 18 17 17 17 17 17 17 16 15 14 12 10 10 10
7 7 6 6 6 5 5 4 3 2 3 5 6 7 9 9 10 14 14 13 14 10 6 5 5 3 1 2 2 3 2 2 1 0 3 2 4 6 8 8 8 3 5 8 3 3 7 2 2 8 10 5 4 6 8 11 13 14 14 16 17 16 16 17 16 17 16 15 14 13 11 10 11 9
9 7 6 5 6 5 6 6 4 5 6 7 7 8 8 7 7 8 6 6 4 5 5 5 3 1 1 0 2 2 1 0 0 1 2 3 3 3 3 3 4 3 3 5 2 8 5 1 3 8 8 5 5 6 7 11 13 15 16 15 12 13 12 14 15 11 9 9 8 8 9 10 9 8
8 7 6 6 7 7 7 9 12 9 7 9 8 7 5 5 5 6 4 4 4 4 4 4 3 2 1 2 1 1 2 2 1 1 2 1 1 3 4 4 2 2 2 2 5 3 4 1 5 4 2 3 7 4 5 4 4 6 5 4 5 6 10 9 7 8 5 3 4 5 8 9 7 6
7 7 7 6 6 7 7 9 12 12 12 8 8 6 5 4 4 6 4 4 6 7 5 7 5 4 5 4 4 5 4 3 2 3 7 7 5 6 6 4 3 4 1 1 4 3 4 3 2 3 3 2 3 5 3 1 7 10 12 16 16 15 13 12 12 11 11 9 7 8 9 8 6 2
7 9 13 9 6 7 6 10 12 12 9 8 6 6 6 7 7 7 7 5 4 5 4 6 6 6 9 9 8 10 10 7 2 4 5 4 3 3 2 4 3 5 2 4 4 2 3 1 1 1 3 2 3 3 4 1 2 3 4 8 11 11 11 12 13 12 10 7 6 8 7 6 2 0
6 7 8 11 8 7 7 11 12 13 9 7 6 4 6 6 6 5 5 7 9 10 10 9 9 9 10 8 6 7 10 10 8 5 3 5 3 5 4 5 3 4 2 4 2 1 4 3 3 3 1 3 2 2 3 3 2 3 4 6 8 14 14 13 11 10 9 9 9 6 6 7 3 1
5 5 5 6 8 8 8 9 10 10 10 7 5 5 7 5 4 3 3 3 4 4 4 5 5 6 6 6 7 7 8 8 7 6 5 4 3 5 5 4 4 5 2 2 1 2 3 2 3 0 2 2 4 1 1 2 1 1 3 5 4 10 13 14 11 12 10 7 7 7 7 9 7 4
5 4 4 3 7 8 9 10 10 10 10 7 6 5 5 2 0 1 3 4 4 3 4 4 5 6 6 6 6 7 7 7 7 7 7 6 4 3 4 5 4 6 5 3 2 1 3 1 2 1 1 3 2 3 1 1 1 2 2 5 6 6 7 7 6 7 9 9 8 10 12 10 10 7
5 4 3 4 6 9 9 10 11 11 10 8 6 5 5 4 4 3 1 1 3 5 5 6 6 6 7 7 7 7 6 6 6 6 6 6 6 3 3 4 5 4 4 3 5 2 2 3 4 3 2 2 3 2 4 2 1 1 4 5 6 8 10 10 9 8 7 7 6 8 11 12 11 12
4 3 4 4 7 8 9 10 10 10 10 9 6 7 7 6 5 3 3 3 5 5 5 6 6 5 5 6 6 6 7 6 6 6 6 6 5 4 5 4 2 1 2 4 2 2 2 3 0 2 4 1 2 1 1 3 1 1 1 3 4 5 6 7 8 8 7 7 7 11 11 7 10 11
3 3 3 4 6 8 9 11 11 11 10 8 9 9 9 8 6 5 6 6 5 5 6 5 6 6 5 5 6 5 5 4 4 4 4 4 3 3 3 3 3 3 3 3 2 1 1 2 2 0 1 3 3 3 4 2 0 3 4 1 2 3 4 5 6 6 6 6 5 5 5 5 5 6
3 3 5 7 10 11 12 12 12 12 13 15 14 13 12 10 8 8 7 6 6 6 5 3 3 3 3 1 1 3 3 3 3 4 6 5 3 1 0 0 1 3 3 4 4 2 0 1 3 1 1 2 4 5 2 4 3 3 5 5 3 6 6 5 5 6 5 5 6 6 7 7 6 6
8 9 12 15 14 12 9 9 9 8 9 14 15 15 13 9 8 7 7 7 7 6 6 5 5 3 4 4 5 3 3 5 6 5 6 6 7 7 6 6 4 2 2 4 5 4 2 0 1 1 1 3 1 4 4 3 3 3 4 6 3 2 5 6 6 5 6 7 7 7 6 6 7 8
8 12 12 11 12 11 14 13 12 11 11 11 10 8 8 7 7 6 7 6 6 6 6 6 5 4 5 4 4 5 5 5 5 4 4 4 6 6 6 3 6 5 2 2 3 4 4 2 1 1 1 2 1 1 2 2 3 2 4 5 5 5 4 6 5 5 6 5 4 4 4 5 4 5
6 8 9 11 8 8 9 8 8 8 8 8 7 7 6 6 5 5 5 5 5 4 3 2 3 4 4 3 4 4 4 5 5 5 5 4 6 6 5 4 5 5 4 3 4 3 3 3 3 1 1 2 2 3 1 0 2 3 3 3 4 2 2 7 6 5 5 5 5 4 4 5 6 5
7 8 9 8 9 8 8 8 8 7 7 7 7 7 7 6 6 7 7 7 6 5 5 6 5 5 5 5 5 5 5 5 5 4 6 5 5 6 3 4 5 6 6 5 3 4 4 4 3 2 1 0 1 1 0 2 3 0 1 2 2 2 2 3 5 5 5 5 5 5 2 0 2 4
9 8 8 7 8 7 8 8 7 6 6 6 6 6 5 6 6 6 6 6 5 5 4 4 5 5 5 6 6 6 5 6 6 5 4 5 5 4 5 6 6 4 2 2 2 3 4 4 4 4 3 2 3 4 3 0 3 4 3 2 2 2 1 2 3 4 5 5 6 5 3 1 1 2
8 8 8 7 7 7 7 6 6 5 6 6 6 6 6 6 6 5 5 5 4 5 4 4 4 4 5 5 5 5 5 5 5 6 5 3 4 4 5 5 5 3 2 1 2 4 3 4 5 4 4 5 3 1 4 4 1 3 2 2 1 4 3 2 5 4 4 3 4 4 3 1 2 3
7 7 7 7 6 6 7 5 5 5 6 5 5 5 6 6 5 5 5 5 5 6 6 6 6 5 5 4 4 5 5 5 5 5 6 6 6 6 5 4 3 3 3 4 3 3 3 3 4 3 3 3 3 3 2 5 6 2 0 1 1 3 3 4 3 4 5 4 4 5 4 3 4 5
7 6 7 7 6 6 6 5 5 5 5 5 5 5 5 5 5 5 5 4 5 4 3 3 4 5 5 5 6 5 5 5 5 5 6 6 5 4 5 5 5 4 4 5 4 4 3 2 2 2 3 3 3 2 4 4 6 6 1 3 2 2 4 4 5 5 2 2 3 3 4 5 4 6
7 7 7 6 6 5 5 5 5 5 5 5 5 5 5 4 3 3 2 3 4 4 6 6 5 5 4 5 5 5 5 5 4 5 6 5 6 6 5 4 4 5 4 5 4 4 3 4 5 3 1 2 3 3 2 2 2 5 9 2 5 2 3 5 4 4 1 3 0 1 2 3 3 4
6 7 7 6 6 6 5 5 5 6 5 6 5 3 2 2 2 3 4 5 5 4 4 4 4 4 5 5 5 4 5 5 6 6 6 6 5 5 5 5 4 5 4 5 5 5 5 6 5 5 4 1 0 1 1 1 1 1 6 8 4 4 2 3 3 1 2 2 0 1 1 0 2 5
6 6 5 6 5 5 4 5 5 4 4 3 3 2 3 4 4 5 5 5 4 3 4 5 5 5 6 5 5 4 5 5 5 6 6 5 6 6 5 4 4 3 3 4 4 5 5 5 5 5 5 3 3 3 2 2 2 1 1 5 6 3 2 3 3 3 0 1 2 2 2 2 1 2
6 6 5 5 5 5 4 3 2 3 3 4 4 4 5 4 5 4 3 4 4 5 6 5 5 4 4 4 4 5 6 6 6 7 7 6 6 6 7 6 6 5 4 4 4 4 5 4 6 6 2 3 4 1 1 2 1 3 4 3 4 4 3 3 3 4 2 1 1 3 2 0 0 1
5 5 5 5 5 3 4 4 3 3 3 4 4 4 4 4 3 4 4 5 5 4 5 4 3 3 4 5 5 6 6 6 6 6 6 6 6 6 7 5 5 5 5 5 5 5 6 4 5 4 5 3 3 2 2 2 3 2 2 3 3 3 4 3 0 3 3 5 3 2 2 1 2 1
5 5 5 4 3 5 4 4 3 3 4 4 5 4 5 4 4 5 5 5 4 4 4 4 4 5 5 6 6 5 5 6 5 5 5 4 4 5 5 5 4 3 3 4 5 4 5 5 5 5 5 4 3 0 2 3 3 3 2 2 2 2 1 2 4 1 1 2 3 3 1 1 3 1
4 5 4 3 5 5 5 5 4 3 2 3 3 3 4 5 5 2 2 3 3 4 5 6 6 6 6 6 5 5 6 4 4 4 5 3 3 3 3 4 4 4 5 4 5 5 5 5 4 3 3 3 3 4 4 4 4 3 1 2 3 2 1 3 3 2 1 2 4 3 3 4 4 4
2 3 3 4 5 4 5 4 5 4 2 3 4 3 2 2 2 2 3 3 5 6 6 6 6 6 5 5 5 5 5 4 4 4 2 3 3 4 3 3 4 5 5 5 5 6 5 5 4 3 2 2 2 2 3 3 3 4 3 1 3 3 2 2 2 3 4 4 5 7 3 5 6 2
Wind_Direction
172 171 174 181 182 184 159 152 156 164 159 168 168 175 176 175 153 166 184 212 148 214 217 153 203 166 176 180 187 168 166 158 151 145 144 149 155 157 151 146 146 143 146 145 144 145 145 143 142 144 143 145 141 134 135 134 132 133 126 119 104 105 98 92 89 111 120 113 105 98 103 114 111 108
171 175 171 173 184 184 161 160 155 159 170 168 173 179 172 157 169 163 173 200 201 177 233 182 159 171 180 177 186 185 174 161 147 150 153 159 164 168 163 162 158 157 154 156 158 160 161 162 161 160 166 167 162 159 158 157 162 164 157 148 141 139 137 135 144 147 134 134 140 149 163 170 187 318
161 175 174 179 185 175 177 160 151 153 162 172 171 173 163 179 175 166 153 155 250 171 193 229 176 162 174 176 173 172 182 167 155 156 162 171 174 169 181 180 173 168 167 164 168 175 180 184 188 190 191 191 187 186 184 183 185 184 175 169 172 170 168 177 183 179 175 171 176 181 201 221 241 259
168 173 176 185 184 174 160 174 169 161 172 164 166 170 174 184 164 151 152 174 194 209 192 184 146 161 161 168 165 174 176 176 165 163 173 178 170 175 189 199 193 185 181 179 183 193 195 200 206 209 206 205 202 199 197 194 196 197 182 186 189 185 181 183 198 194 183 190 194 205 228 252 248 248
165 176 178 182 197 165 167 187 176 168 168 167 164 153 151 162 185 167 165 175 169 149 89 127 169 156 148 168 185 169 175 172 181 172 181 175 177 190 197 201 208 205 199 195 198 204 207 209 214 215 215 212 210 206 202 204 206 203 190 194 199 195 187 189 192 200 185 191 196 201 226 239 248 270
177 175 173 183 190 181 178 184 187 181 168 168 165 164 163 182 200 199 162 173 160 190 123 107 95 156 181 167 188 179 175 188 177 181 187 193 193 199 202 204 216 214 212 209 209 210 213 215 218 223 221 220 214 213 210 210 212 207 196 201 204 201 197 197 188 186 184 188 193 200 204 217 250 259
177 171 179 188 184 174 172 192 198 175 178 145 185 179 181 178 203 193 181 150 168 169 189 158 155 181 193 188 191 197 202 182 177 178 192 194 198 210 201 211 221 217 217 217 217 218 219 219 220 224 226 225 222 220 217 214 213 213 202 204 208 208 204 200 188 186 187 193 193 194 195 215 233 238
175 182 178 193 179 175 180 191 198 190 182 176 177 181 174 190 199 186 178 175 137 158 149 197 184 186 178 228 217 181 173 174 182 197 192 193 204 210 206 212 221 219 215 220 221 222 224 223 222 224 226 226 224 223 222 218 215 213 208 206 208 210 209 198 188 187 197 211 201 188 195 215 229 234
178 174 187 185 175 174 183 194 187 187 182 195 171 185 180 183 207 173 174 166 147 145 177 180 194 168 207 220 167 173 171 195 212 200 198 204 213 217 221 220 227 230 220 223 227 228 226 225 225 224 224 225 224 222 222 221 219 216 212 208 207 208 207 198 185 189 196 211 209 197 195 217 234 233
172 173 177 182 174 174 181 191 191 184 193 195 187 174 152 164 203 167 153 146 159 165 173 163 157 171 185 190 193 189 187 174 193 219 232 233 227 220 234 232 228 218 214 213 226 231 234 234 232 229 227 226 225 223 223 223 223 221 217 211 208 207 205 197 186 187 194 201 204 201 193 201 226 221
164 161 168 178 182 180 181 180 184 181 191 191 217 187 147 141 165 182 171 153 162 167 155 178 186 171 196 180 194 208 192 195 189 193 199 239 233 220 217 237 233 222 226 224 218 218 215 220 224 231 231 229 227 225 224 225 225 224 220 215 210 208 205 196 187 187 191 196 195 191 192 201 215 217
155 168 179 180 185 179 172 167 171 165 180 174 207 189 166 160 208 198 162 165 158 162 170 170 183 194 176 220 261 91 130 180 253 223 192 211 220 224 222 223 222 222 216 235 234 231 229 237 236 239 239 236 233 230 228 226 226 225 221 216 212 208 204 196 186 187 192 192 190 188 189 197 207 214
136 147 142 139 164 164 164 174 183 195 167 162 181 205 165 186 177 169 168 168 165 176 167 188 171 146 184 206 151 151 179 196 211 209 183 221 229 226 231 246 231 219 210 235 236 235 210 224 229 222 231 235 226 233 227 230 226 224 219 216 212 208 205 201 200 195 190 189 189 187 191 197 198 210
140 158 112 82 84 83 82 67 35 154 172 167 164 186 180 167 161 159 156 162 173 160 170 186 165 169 207 206 198 186 207 209 220 137 187 222 237 202 246 280 246 213 205 221 235 242 210 206 239 218 232 241 207 226 213 226 218 218 216 213 210 207 203 199 196 190 187 187 188 188 195 196 197 207
135 73 68 70 57 52 44 41 36 20 37 86 117 126 126 127 143 150 137 155 157 161 175 161 152 190 210 225 209 222 226 234 208 212 198 224 219 205 228 253 295 229 192 212 231 257 211 183 227 232 229 239 214 216 225 225 219 219 214 212 209 206 201 197 192 188 186 186 185 189 193 191 194 211
100 100 83 60 47 39 35 55 56 79 49 353 2 70 59 52 47 46 96 146 139 141 138 160 193 177 214 233 206 230 216 230 224 236 214 213 216 224 226 239 247 245 182 194 202 244 222 179 221 243 239 236 221 220 225 224 218 218 214 210 207 203 199 194 190 187 186 185 184 188 188 186 199 216
108 99 88 74 51 33 34 29 27 42 58 104 28 82 77 61 50 44 48 53 78 130 108 138 158 175 220 44 286 210 229 175 198 209 215 220 224 228 234 237 245 261 179 175 213 238 235 178 213 226 242 238 228 234 233 229 221 219 215 211 207 202 196 191 189 187 187 186 185 185 181 186 204 218
84 78 80 81 66 44 40 27 30 43 77 69 52 63 74 75 66 59 47 48 49 53 74 79 64 2 57 46 314 320 354 28 350 70 236 243 239 234 231 244 246 276 139 195 208 289 277 250 234 248 260 275 273 244 246 238 233 230 226 218 209 200 192 190 188 189 188 186 186 180 176 193 211 220
75 74 75 77 76 59 51 37 24 71 80 82 71 68 68 73 72 71 60 53 52 64 76 89 112 4 352 264 284 296 330 88 201 204 250 256 233 238 260 299 284 298 210 181 161 256 261 109 186 243 252 274 270 253 252 232 223 221 219 217 207 199 192 190 192 183 185 191 188 173 185 204 216 225
69 73 74 73 64 52 54 29 50 65 82 73 71 66 61 62 58 58 62 89 87 95 106 118 130 166 207 214 237 245 252 279 275 276 275 257 35 1 338 291 303 258 299 171 182 251 267 216 185 262 262 235 247 261 255 291 289 261 251 237 222 211 203 196 172 162 157 186 196 209 220 222 218 231
68 65 62 67 65 59 49 26 49 56 73 73 69 70 63 60 56 36 13 21 38 37 55 59 50 70 40 22 352 356 345 313 334 12 18 352 347 0 327 306 326 289 335 312 195 214 273 260 217 299 319 304 272 276 260 169 148 160 185 198 190 192 187 179 167 160 172 179 189 216 230 237 232 188
65 54 56 58 64 61 43 23 36 38 65 72 66 59 54 39 29 8 355 2 23 48 74 48 35 48 31 35 32 35 35 37 75 39 11 306 351 310 247 263 274 290 314 253 168 169 237 267 173 243 282 315 252 266 288 330 60 145 172 176 179 173 169 167 164 169 171 171 190 223 240 256 285 355
66 57 45 46 47 55 44 41 40 37 48 70 55 63 68 56 43 352 345 7 2 1 7 7 9 15 15 20 32 32 35 40 38 35 358 321 328 296 274 255 283 306 288 269 143 233 267 248 261 168 283 293 282 41 355 21 34 88 127 143 152 161 160 156 155 161 150 177 206 212 226 245 183 160
67 62 54 47 39 45 52 57 58 56 56 72 64 62 68 63 30 324 356 24 15 1 11 351 6 8 5 18 25 21 20 21 20 20 11 8 320 283 285 271 244 249 246 289 49 201 274 231 265 124 183 259 290 292 3 2 47 111 128 138 126 159 157 156 160 162 165 176 190 196 222 227 196 177
74 60 58 67 36 42 48 55 60 66 64 70 76 69 81 79 305 334 22 4 10 18 12 12 14 17 16 25 25 21 17 13 5 1 358 354 348 294 284 289 283 262 262 270 265 201 260 255 282 349 256 205 269 324 272 103 61 94 128 136 127 140 148 152 149 160 165 181 192 201 220 214 200 190
64 45 33 39 27 39 48 55 62 64 64 63 72 74 111 113 78 88 67 12 9 26 28 24 30 22 22 22 17 11 11 6 359 356 351 349 342 321 266 260 273 289 282 304 352 249 247 291 238 239 226 195 265 207 289 313 205 164 151 168 162 166 166 169 171 168 163 178 193 196 212 209 199 206
42 18 16 24 33 49 57 67 72 74 68 63 67 69 59 57 62 65 52 37 36 37 36 47 45 31 30 28 17 12 3 354 354 353 350 348 353 2 15 15 4 255 277 296 313 271 241 273 278 202 251 213 248 326 269 257 278 91 170 191 184 183 185 162 165 172 175 178 195 196 204 188 198 204
66 42 22 12 30 70 78 81 78 69 63 65 65 62 60 53 44 43 41 40 43 59 57 52 42 32 15 23 19 1 342 342 338 334 347 347 356 26 20 13 3 341 313 308 324 17 158 246 280 235 204 196 200 220 257 276 213 189 189 184 182 191 186 175 177 174 170 168 170 175 171 190 184 180
51 24 24 48 69 84 88 82 73 62 59 62 62 61 57 52 43 38 42 38 43 49 38 44 54 38 5 341 291 287 300 309 349 3 350 344 329 294 225 159 64 7 354 339 341 347 118 187 249 237 179 184 211 256 191 241 192 216 183 148 192 213 194 197 187 175 173 165 184 178 196 188 177 173
47 56 74 77 78 74 73 68 64 66 62 61 57 53 51 48 46 39 43 34 41 27 9 17 26 358 341 340 330 320 339 19 5 354 348 345 343 348 340 328 323 338 0 359 348 335 18 102 193 171 295 337 298 271 249 200 248 236 176 193 198 114 182 181 190 183 168 183 188 195 199 180 180 167
59 69 73 79 80 82 76 74 71 64 56 52 48 46 45 46 42 41 42 47 45 26 14 4 351 334 326 320 358 356 349 350 352 358 338 342 329 338 333 318 292 305 316 358 351 350 3 36 106 110 310 310 350 272 275 250 248 216 207 205 178 193 193 169 183 185 184 186 179 170 142 151 158 189
63 79 72 65 58 61 59 56 53 52 53 54 52 48 44 42 41 44 57 62 52 33 4 349 332 341 345 356 333 329 346 346 342 355 351 345 327 328 332 344 308 301 313 331 343 346 19 7 11 330 188 188 262 298 23 73 259 279 268 212 235 307 107 171 172 192 175 144 126 125 119 145 166 173
69 67 62 59 56 54 60 54 54 50 53 50 46 46 39 31 32 30 31 30 18 3 6 18 360 351 344 347 349 346 347 342 333 344 349 332 345 317 344 326 293 298 293 305 331 337 354 350 4 6 345 183 196 187 309 315 301 344 325 305 181 189 215 193 162 151 129 117 107 101 63 3 187 163
79 72 71 61 65 61 61 59 53 49 51 54 50 42 40 40 38 35 31 27 10 4 18 4 11 358 351 353 355 347 342 327 331 334 0 324 333 336 329 321 306 302 301 288 322 337 342 342 342 339 358 6 33 67 86 70 296 302 312 283 161 118 6 65 84 129 135 130 131 109 95 84 151 163
75 79 77 71 67 68 70 70 64 59 58 50 53 42 38 38 36 32 32 15 9 15 14 16 16 8 11 350 338 340 326 321 312 329 335 341 336 331 314 312 297 286 262 301 354 343 10 358 4 2 350 1 2 347 51 86 72 346 39 30 70 131 115 121 124 110 100 85 93 102 82 66 199 212
77 85 90 86 80 81 75 72 70 64 65 55 55 52 44 33 24 30 25 4 21 18 21 15 10 4 358 346 338 342 344 338 341 351 340 346 344 335 340 341 326 324 359 6 348 342 20 17 46 56 33 352 20 351 318 1 40 338 161 82 32 113 112 115 97 94 99 99 107 130 139 179 208 210
87 85 89 89 87 83 87 80 77 71 69 68 62 60 61 48 23 24 10 6 25 21 16 18 18 11 7 3 360 2 4 11 359 355 358 343 343 355 11 6 10 6 17 355 352 346 11 20 31 88 68 31 31 320 283 303 341 16 55 112 58 49 111 97 88 64 28 87 135 135 165 171 207 217
97 91 89 86 88 87 86 81 76 73 65 63 62 53 49 47 37 15 351 32 29 28 21 26 15 16 14 10 19 8 10 7 10 15 12 9 10 6 14 13 13 12 11 9 8 4 7 41 28 2 27 318 315 319 327 321 355 353 3 39 109 77 58 93 82 110 63 22 353 286 132 164 215 238
87 94 92 94 92 91 89 91 90 83 73 67 70 85 84 74 53 33 37 36 34 32 25 30 26 23 27 18 19 21 20 14 14 8 9 7 14 12 9 14 15 360 19 17 7 15 18 30 18 16 40 54 206 271 236 259 3 285 344 18 110 97 68 103 108 94 120 107 302 359 69 104 98 50
80 87 97 96 97 96 93 85 84 97 105 110 108 107 93 65 51 47 40 36 33 28 40 33 24 25 26 20 14 11 34 30 21 11 11 11 11 13 10 355 12 353 21 17 16 357 14 3 354 349 336 321 285 285 230 256 275 301 323 6 40 88 161 120 136 144 204 248 196 83 47 4 33 344
89 86 87 96 85 82 83 84 109 118 104 93 83 73 65 63 59 52 56 47 47 39 35 24 24 27 24 18 23 35 36 21 20 17 13 13 14 18 14 12 12 358 4 360 355 356 358 324 305 306 297 289 301 355 18 10 353 320 344 318 340 39 124 177 161 153 184 192 110 108 99 77 258 22
90 87 78 70 70 53 63 61 72 90 94 92 87 81 69 63 64 64 52 40 41 40 40 29 19 25 24 24 25 31 40 30 18 13 14 12 8 2 7 11 8 356 12 357 341 323 303 317 333 2 360 7 17 16 306 266 271 297 283 306 323 350 359 354 130 199 160 149 122 95 112 26 42 31
79 90 85 74 57 46 34 38 41 86 128 121 106 107 89 66 52 46 39 39 34 39 29 24 21 28 24 19 20 27 32 19 10 4 3 8 8 7 353 347 338 329 334 325 310 305 320 334 353 4 360 31 5 76 358 326 301 279 297 308 299 325 9 334 305 295 79 164 166 165 173 154 119 319
79 83 78 64 48 36 33 35 33 36 76 90 96 90 93 89 65 58 59 47 35 24 13 24 18 22 15 8 7 16 19 1 350 355 348 333 333 336 341 336 340 337 336 339 326 322 322 332 337 343 3 350 336 16 1 350 341 346 301 291 318 355 326 315 325 342 331 282 254 212 179 167 178 221
72 85 73 50 47 41 40 36 37 32 56 115 121 114 111 95 86 40 22 26 17 12 15 6 4 356 358 360 20 4 338 335 348 340 330 336 339 330 328 338 346 349 350 337 333 330 338 336 333 345 355 337 15 348 312 300 292 316 324 337 300 296 295 334 343 324 341 321 2 6 264 206 215 211